Location: Bühlhof
(48.7849°N, 8.6361°E)
Time: 22:03:48
(UTC+00:00)

Resurs 01 Rocket - Pass Details

Date: 19 January 2026
Orbit: 627 x 635 km, 97.7° (Epoch: 7 February)

Event Time Altitude Azimuth Distance (km) Brightness Sun altitude
Rises 17:59:36 0° 155° (SSE) 2,903 4.9 -18.8°
Reaches altitude 10° 18:01:48 10° 152° (SSE) 2,000 4.0 -19.2°
Maximum altitude 18:06:06 61° 72° (ENE) 716 1.5 -19.9°
Drops below altitude 10° 18:10:25 10° 353° (N) 2,018 4.2 -20.6°
Sets 18:12:39 0° 350° (N) 2,931 5.1 -21.0°
